Flag for Kuwait Weather past 2 weeks in Kuwait City, Kuwait

Now
95 °F

Sunny.


Feels Like: 91 °F
Forecast: 75 / 94 °F
Wind: 6 mph from Southeast

Location: Kuwait International Airport


UV Index: 7 (High)

Visibility: 10 mi


Pressure: 29.86 "Hg

Humidity: 19%

Dew point: 46 °F

Location of Kuwait CityLocation

Historic Weather in Kuwait City

°F

Kuwait City temperature yesterday

Maximum temperature yesterday: 93 °F (at 2:00 PM)
Minimum temperature yesterday: 72 °F (at 5:00 AM)
Average temperature yesterday: 84 °F

Past Weeks' High & Low Weather Summary

 TemperatureHumidityPressure
High97 °F (Apr 9, 12:00 PM)94% (Apr 2, 11:00 PM)30.15 "Hg (Apr 2, 11:00 PM)
Low50 °F (Apr 4, 4:00 AM)7% (Apr 9, 12:00 PM)29.56 "Hg (Apr 2, 3:00 PM)
Average77 °F34%29.92 "Hg
* Reported Apr 1 4:00 PM — Apr 16 4:00 PM, Kuwait City, Weather by CustomWeather, © 2014

Note: Actual official high and low records may vary slightly from our data, if they occured in-between our weather recording intervals... More about our weather records

Advertising

Historic Weather Conditions — Data for Previous 24 hours

 ConditionsComfort  
Time TempWeatherWind HumidityBarometerVisibility
4:00 PM
Apr 16
95 °FSunny.6 mph19%29.86 "Hg10 mi
3:00 PM95 °FSunny.6 mph18%29.86 "Hg10 mi
2:00 PM97 °FScattered clouds.9 mph16%29.89 "HgN/A
1:00 PM97 °FSunny.8 mph16%29.92 "Hg10 mi
12:00 PM93 °FSunny.9 mph17%29.92 "Hg10 mi
11:00 AM91 °FSunny.6 mph20%29.95 "Hg10 mi
10:00 AM90 °FSunny.10 mph24%29.92 "Hg10 mi
9:00 AM88 °FSunny.12 mph27%29.92 "Hg10 mi
8:00 AM84 °FSunny.10 mph31%29.92 "Hg10 mi
7:00 AM81 °FSunny.7 mph42%29.92 "Hg10 mi
6:00 AM79 °FPartly sunny.6 mph42%29.92 "HgN/A
5:00 AM77 °FPassing clouds.5 mph44%29.89 "HgN/A
4:00 AM81 °FPassing clouds.7 mph37%29.89 "HgN/A
3:00 AM81 °FPassing clouds.9 mph32%29.89 "HgN/A
2:00 AM82 °FPassing clouds.9 mph28%29.89 "HgN/A
1:00 AM81 °FClear.8 mph32%29.89 "Hg10 mi
12:00 AM81 °FClear.5 mph32%29.92 "Hg10 mi
11:00 PM
Apr 15
84 °FClear.10 mph29%29.89 "Hg10 mi
10:00 PM88 °FClear.8 mph31%29.89 "Hg10 mi
9:00 PM82 °FClear.6 mph32%29.89 "Hg10 mi
8:00 PM82 °FClear.No wind30%29.89 "Hg10 mi
7:00 PM88 °FClear.3 mph27%29.86 "Hg10 mi
6:00 PM90 °FSunny.3 mph24%29.86 "Hg10 mi
5:00 PM90 °FSunny.3 mph26%29.83 "Hg10 mi
Weather by CustomWeather, © 2014

See weather overview